Location: Corralito
(10.2667°N, 66.9500°W)
Time: 05:59:54
(UTC+00:00)

CZ-4B R/B - Pass Details

Date: 07 December 2023
Orbit: 809 x 881 km, 99.0° (Epoch: 22 February)

Event Time Altitude Azimuth Distance (km) Brightness Sun altitude
Rises 00:13:14 0° 164° (SSE) 3,456 6.4 -30.2°
Reaches altitude 10° 00:15:36 10° 162° (SSE) 2,523 5.7 -30.7°
Enters shadow 00:16:04 12° 162° (SSE) 2,347 5.5 -30.9°
